Location: Fort Worth, Tx
(32.7431°N, 97.3695°W)
Time: 16:49:11
(UTC-04:00)

OBJECT B - Visible Passes

Search period start: 11 April 2026 00:00
Search period end: 21 April 2026 00:00
Orbit: 1116 x 1181 km, 86.0° (Epoch: 11 April)

Date Brightness Start Highest point End Pass type
(mag) Time Alt. Az. Time Alt. Az. Time Alt. Az.
11 Apr ? 07:34:07 10° NE 07:37:19 13° ENE 07:40:29 10° E visible
11 Apr ? 21:23:27 10° S 21:30:39 81° E 21:37:55 10° N visible
11 Apr ? 23:16:37 10° WSW 23:20:03 14° WNW 23:23:29 10° NW visible
12 Apr ? 22:42:52 10° SW 22:48:22 23° WNW 22:53:56 10° NNW visible
13 Apr ? 22:10:17 10° SSW 22:16:50 37° W 22:23:27 10° NNW visible
14 Apr ? 21:38:20 10° SSW 21:45:25 59° W 21:52:33 10° N visible
15 Apr ? 07:17:03 10° NE 07:20:49 15° ENE 07:24:33 10° ESE visible
15 Apr ? 23:00:55 10° W 23:03:35 12° WNW 23:06:15 10° NW visible
16 Apr ? 22:26:42 10° SW 22:31:54 21° WNW 22:37:07 10° NNW visible
17 Apr ? 21:53:56 10° SW 22:00:20 34° W 22:06:46 10° NNW visible
18 Apr ? 07:30:07 10° NNE 07:35:57 28° E 07:41:42 10° SE visible
18 Apr ? 21:21:53 10° SSW 21:28:54 54° W 21:35:56 10° N visible
19 Apr ? 07:00:06 10° NE 07:04:20 17° ENE 07:08:31 10° ESE visible
19 Apr ? 22:45:43 10° W 22:47:09 11° WNW 22:48:34 10° WNW visible
20 Apr ? 22:10:36 10° WSW 22:15:25 19° WNW 22:20:16 10° NNW visible
